FENGYUN 1C DEB

Satellite information

Favourite Embed

Satellite Type and Status

DEBRISIN ORBIT

Key statistics

Satellite FENGYUN 1C DEB at a glance.

Uptime

9555

Days in orbit

Revolutions

≈ 14.5

Per day

Orbit

SSO

Sun Synchronous Orbit

Inclination

102.3

Latest

Satellite identification and parameters

Extended collection of information and parameters for FENGYUN 1C DEB.

Object identification

Identified? True

Debris? True

Object name: FENGYUN 1C DEB

International designator: 1999-025AHE

Object number (NORAD): 30492

Object ID (CCSDS): 30492

Country: PEOPLES REPUBLIC OF CHINA (PRC)

Current information (Y/N): Y

RCS size: SMALL

Orbital parameters

Period: 99.601 minutes

Inclination: 102.3269 deg

SMA: 7117.639 km

Apoapsis: 816.25 km

Periapsis: 662.758 km

RAAN: 132.771 deg

Eccentricy: 0.0107825

Argument of periapsis: 120.9798 deg

Mean anomaly: 240.2026 deg

Mean motion: 14.45768832 rev/day

Mean motion (dot): 0.0001043 rev/day2

B* drag term: 0.002755 1/REarth

Two-line elements (TLE)

Creation date: July 6, 2025, 10:46 p.m.

Reference frame: TEME

Reference center: EARTH

Epoch: July 6, 2025, 7:14 p.m. UTC

TLE line 0: 0 FENGYUN 1C DEB

TLE line 1: 1 30492U 99025AHE 25187.80155148 .00010430 00000-0 27550-2 0 9997

TLE line 2: 2 30492 102.3269 132.7710 0107825 120.9798 240.2026 14.45768832945926

Live tracking on map

Real-time ground track for satellite FENGYUN 1C DEB.

In-orbit conjunctions

A list of the most updated potential collisions computed for object FENGYUN 1C DEB.

Target Orbit TCA Probability of collision Miss distance Type
FENGYUN 1C DEB SSO 2025-01-12 18:17:12 0.0001879384 320.0 (m) DEBRIS
COSMOS 2251 DEB LEO 2024-09-27 01:27:16 0.0001881615 669.0 (m) DEBRIS
DMSP 5D-2 F13 DEB SSO 2024-08-19 10:34:45 0.0001114245 50.0 (m) DEBRIS

Associated space launch

Chinese polar orbiting meteorological satellite

FENGYUN 1C DEB was lifted into orbit during the mission ‘Long March 4B | Feng Yun 1C’, on board a Long March 4B space rocket.

The launch took place on May 10, 1999, 1:33 a.m. from Launch Complex 7.

For more information about the launch, click the button.

Launch to space Long March 4B | Feng Yun 1C
Long March 4B | Feng Yun 1C

Agency: N/A

Status: Launch Successful

Launch date: May 10, 1999, 1:33 a.m. UTC

Rocket: Long March 4B

Launch pad: Launch Complex 7

Location: Taiyuan Satellite Launch Center, People's Republic of China

...

Latest news about this satellite

There are no fresh news available about this satellite. Check back as we update our databases every day.


Newsletter sign-up

Weekly statistics, charts and insights to help you stay on top of the space industry.